Weather History for KSAT - April, 2014

Change the Weather History Date:

Monday, April 7, 2014

  Actual Average Record
Temperature  
Mean Temperature 62 °F 67 °F  
Max Temperature 79 °F 79 °F 99 °F (2006)
Min Temperature 44 °F 56 °F 35 °F (1971)
Degree Days  
Heating Degree Days 3 2  
Month to date heating degree days 15 16  
Since 1 July heating degree days 1537 1471  
Cooling Degree Days 0 4  
Month to date cooling degree days 44 27  
Year to date cooling degree days 170 118  
Growing Degree Days 12 (Base 50)    
Moisture  
Dew Point 49 °F    
Average Humidity 65    
Maximum Humidity 93    
Minimum Humidity 37    
Precipitation  
Precipitation 0.40 in 0.06 in 3.17 in (1900)
Month to date precipitation 0.43 0.41  
Year to date precipitation 2.14 6.27  
Snow  
Snow 0.00 in - - ()
Month to date snowfall 0.0  
Since 1 July snowfall 0.4  
Snow Depth 0.00 in    
Sea Level Pressure  
Sea Level Pressure 29.87 in    
Wind  
Wind Speed 6 mph (NNW)    
Max Wind Speed 32 mph    
Max Gust Speed 42 mph    
Visibility 10 miles    
Events Rain , Hail , Thunderstorm    
T = Trace of Precipitation, MM = Missing Value Source: NWS Daily Summary

Daily Weather History Graph

Daily Weather History Graph

Search for Another Location

Airport or City:

Trip Planner

Search our weather history database for the weather conditions in past years. The results will help you decide how hot, cold, wet, or windy it might be!

Date:

Astronomy

Apr. 07, 2014 Rise Set
Actual Time 7:16 AM CDT 7:55 PM CDT
Civil Twilight 6:52 AM CDT 8:20 PM CDT
Nautical Twilight 6:23 AM CDT 8:48 PM CDT
Astronomical Twilight 5:55 AM CDT 9:17 PM CDT
Moon 1:25 PM CDT (4/7) 2:22 AM CDT (4/7)
Length of Visible Light 13h 27m
Length of Day
12h 39m
First Quarter, 53% of the Moon is Illuminated
Apr 7
First Quarter
Apr 15
Full
Apr 22
Last Quarter
Apr 29
New
May 6
First Quarter

Hourly Weather History & Observations

Time (CDT) Temp. Windchill Dew Point Humidity Pressure Visibility Wind Dir Wind Speed Gust Speed Precip Events Conditions
12:51 AM 51.1 °F - 48.0 °F 89% 29.80 in 10.0 mi SSE 4.6 mph - N/A   Clear
1:51 AM 52.0 °F - 48.0 °F 86% 29.81 in 10.0 mi Calm Calm - N/A   Partly Cloudy
2:51 AM 46.9 °F - 45.0 °F 93% 29.81 in 10.0 mi North 5.8 mph - N/A   Partly Cloudy
3:51 AM 45.0 °F 42.6 °F 43.0 °F 93% 29.80 in 10.0 mi SSE 4.6 mph - N/A   Partly Cloudy
4:51 AM 46.0 °F 44.8 °F 44.1 °F 93% 29.79 in 10.0 mi NNW 3.5 mph - N/A   Clear
5:51 AM 45.0 °F 43.5 °F 43.0 °F 93% 29.79 in 10.0 mi NW 3.5 mph - N/A   Clear
6:42 AM 46.0 °F 44.8 °F 44.1 °F 93% 29.86 in 10.0 mi NW 3.5 mph - N/A   Mostly Cloudy
6:51 AM 46.9 °F - 44.1 °F 90% 29.84 in 10.0 mi WNW 4.6 mph - N/A   Mostly Cloudy
7:51 AM 50.0 °F - 46.9 °F 89% 29.87 in 10.0 mi NW 4.6 mph - N/A   Overcast
8:27 AM 52.0 °F - 48.9 °F 89% 29.91 in 10.0 mi NNE 4.6 mph - N/A   Overcast
8:51 AM 53.1 °F - 50.0 °F 89% 29.88 in 10.0 mi North 8.1 mph - N/A   Overcast
9:51 AM 55.9 °F - 50.0 °F 80% 29.88 in 10.0 mi NNE 8.1 mph - N/A   Overcast
10:23 AM 59.0 °F - 50.0 °F 72% 29.91 in 10.0 mi NNE 9.2 mph - N/A   Scattered Clouds
10:51 AM 61.0 °F - 50.0 °F 67% 29.88 in 10.0 mi North 9.2 mph - N/A   Partly Cloudy
11:51 AM 68.0 °F - 50.0 °F 52% 29.88 in 10.0 mi Variable 5.8 mph - N/A   Partly Cloudy
12:51 PM 71.1 °F - 50.0 °F 47% 29.87 in 10.0 mi Variable 5.8 mph - N/A   Partly Cloudy
1:51 PM 75.0 °F - 50.0 °F 41% 29.85 in 10.0 mi Variable 4.6 mph - N/A   Scattered Clouds
2:51 PM 78.1 °F - 50.0 °F 37% 29.81 in 10.0 mi Variable 4.6 mph - N/A   Scattered Clouds
3:08 PM 75.0 °F - 48.0 °F 38% 29.85 in 10.0 mi Variable 4.6 mph - N/A Thunderstorm Thunderstorm
3:12 PM 75.0 °F - 48.9 °F 40% 29.85 in 10.0 mi NNE 13.8 mph 21.9 mph N/A Thunderstorm Thunderstorm
3:19 PM 63.0 °F - 48.9 °F 60% 29.87 in 4.0 mi North 28.8 mph 42.6 mph 0.06 in Rain , Hail , Thunderstorm Heavy Thunderstorms with Hail
3:39 PM 62.1 °F - 50.0 °F 65% 29.90 in 5.0 mi SW 8.1 mph - 0.31 in Rain , Thunderstorm Light Thunderstorms and Rain
3:51 PM 60.1 °F - 53.1 °F 78% 29.88 in 7.0 mi West 10.4 mph - 0.33 in Rain , Thunderstorm Light Thunderstorms and Rain
4:51 PM 63.0 °F - 54.0 °F 72% 29.82 in 10.0 mi East 8.1 mph - 0.07 in   Mostly Cloudy
5:51 PM 66.9 °F - 52.0 °F 59% 29.85 in 10.0 mi Calm Calm - N/A   Mostly Cloudy
6:51 PM 68.0 °F - 54.0 °F 61% 29.87 in 10.0 mi Calm Calm - N/A   Scattered Clouds
7:51 PM 64.0 °F - 48.9 °F 58% 29.91 in 10.0 mi NNW 5.8 mph - N/A   Scattered Clouds
8:51 PM 60.1 °F - 48.0 °F 64% 29.96 in 10.0 mi North 11.5 mph - N/A   Scattered Clouds
9:51 PM 55.9 °F - 48.9 °F 77% 30.01 in 10.0 mi NNW 9.2 mph - N/A   Scattered Clouds
10:51 PM 55.9 °F - 48.0 °F 75% 30.01 in 10.0 mi NNW 5.8 mph - N/A   Mostly Cloudy
11:51 PM 55.9 °F - 45.0 °F 67% 30.05 in 10.0 mi WNW 11.5 mph - N/A   Mostly Cloudy